[[{"header":{"parameterUnit":"m.s-1","parameterCategory":1,"la1":30.2991,"la2":30.254,"lo1":-89.0895,"lo2":-89.0444,"dy":0.0017,"dx":0.0017,"nx":28,"ny":28,"refTime":"2024-02-14T09:00:00:Z","depth":0,"parameterNumber":2,"parameterNumberName":"U-component_of_WINDS"},"data":[0,0,0,0,0,0,0,0,0,0,0,0,0,0,0,0,0,0,0,0,0,0,0,0,0,0,0,0,0,0,0,0,0,0,0,0,0,0,0,0,0,0,0,0,0,0,0,0,0,0,0,0,0,0,0,0,0,0,-3.0854,-3.0854,0,-3.0879,-3.0879,-3.0879,-3.0774,-3.0771,-3.0768,-3.0765,-3.0794,-3.0797,-3.0801,0,0,0,0,0,0,0,0,0,0,0,0,0,-3.0717,-3.0721,-3.0854,-3.0854,-3.0854,-3.0879,-3.0879,-3.088,-3.0774,-3.077,-3.0767,-3.0763,-3.0793,-3.0797,-3.0801,0,0,0,0,0,0,0,0,0,0,0,0,0,-3.0763,-3.0722,-3.0854,-3.0805,-3.0801,-3.0879,-3.0879,-3.088,-3.0775,-3.077,-3.0766,-3.0761,-3.0791,-3.0797,-3.0802,-3.093,0,0,-3.0819,-3.0821,0,0,0,0,0,0,0,0,-3.0761,-3.0768,-3.0812,-3.0808,-3.0804,-3.0818,-3.0842,-3.0897,-3.0776,-3.0785,-3.0764,-3.0759,-3.0806,-3.081,-3.0825,-3.0931,-3.0932,-3.0819,-3.0823,-3.0825,-3.0827,0,0,0,0,0,0,0,-3.0758,-3.0767,-3.0864,-3.0812,-3.0808,-3.0782,-3.0784,-3.0852,-3.0822,-3.0784,-3.0776,-3.078,-3.0803,-3.082,-3.0825,-3.0933,-3.0819,-3.0824,-3.0828,-3.083,-3.1145,-3.115,0,0,0,0,0,0,-3.0761,-3.0765,-3.0863,-3.0864,-3.077,-3.0789,-3.079,-3.0818,-3.082,-3.0816,-3.0784,-3.0775,-3.0813,-3.0819,-3.0826,-3.0976,-3.0825,-3.083,-3.0833,-3.114,-3.1147,-3.1152,0,0,0,0,0,0,-3.0758,-3.077,-3.0862,-3.0813,-3.0822,-3.0796,-3.0829,-3.0821,-3.0838,-3.0821,-3.0815,-3.0807,-3.0809,-3.0818,-3.0904,-3.0976,-3.0833,-3.0838,-3.1134,-3.1142,-3.1149,-3.1278,0,0,0,0,0,0,-3.0755,-3.077,-3.0818,-3.0814,-3.0825,-3.094,-3.0833,-3.0825,-3.0848,-3.0836,-3.0841,-3.0837,-3.0806,-3.0897,-3.091,-3.0981,-3.0842,-3.1128,-3.1138,-3.1147,-3.1267,-3.1289,-3.1308,0,0,0,0,0,-3.075,-3.0854,-3.0821,-3.0833,-3.0884,-3.0944,-3.0951,-3.0912,-3.0854,-3.0902,-3.0891,-3.0837,-3.0965,-3.0907,-3.0921,-3.0994,-3.1123,-3.1135,-3.1146,-3.1258,-3.1285,-3.1307,0,0,0,0,0,0,-3.0867,-3.0852,-3.0816,-3.0921,-3.0935,-3.0926,-3.0986,-3.0941,-3.0973,-3.0961,-3.0913,-3.0915,-3.1011,-3.101,-3.0945,-3.1118,-3.1034,-3.1049,-3.1115,-3.114,-3.116,-3.1159,-3.0847,0,0,0,0,0,-3.0905,-3.0954,-3.0938,-3.1033,-3.1041,-3.1013,-3.1038,-3.1007,-3.1019,-3.1025,-3.102,-3.1035,-3.1079,-3.1109,-3.1148,-3.1266,-3.1266,-3.1323,-3.1344,-3.136,-3.1374,-3.1438,-3.1464,-3.1189,-3.1189,-3.1189,0,0,-3.0984,-3.0982,-3.1016,-3.1056,-3.1063,-3.1117,-3.1019,-3.1079,-3.1118,-3.1034,-3.1116,-3.1113,-3.1127,-3.123,-3.1275,-3.1233,-3.145,-3.1375,-3.1388,-3.1393,-3.1452,-3.1478,-3.1501,-3.1197,-3.1196,-3.1195,0,0,-3.1156,-3.1158,-3.1238,-3.1247,-3.1258,-3.1238,-3.1257,-3.1256,-3.125,-3.1331,-3.127,-3.1316,-3.1392,-3.1405,-3.1421,-3.1598,-3.155,-3.1611,-3.1718,-3.178,-3.1802,-3.1821,-3.1886,-3.1909,-3.1625,-3.1625,-3.1626,0,-3.1253,-3.133,-3.1285,-3.1349,-3.1369,-3.1294,-3.1375,-3.1386,-3.1411,-3.1427,-3.1378,-3.1473,-3.1477,-3.1582,-3.1625,-3.164,-3.1662,-3.1612,-3.1802,-3.1821,-3.1838,-3.1899,-3.1923,-3.1633,-3.1632,-3.1631,-3.1631,0,-3.145,-3.1504,-3.1567,-3.1591,-3.1618,-3.1691,-3.1657,-3.169,-3.1657,-3.1643,-3.1726,-3.1728,-3.1767,-3.1789,-3.1758,-3.1891,-3.1864,-3.181,-3.1726,-3.1872,-3.1929,-3.1952,-3.1644,-3.1641,-3.1639,-3.1637,0,0,-3.1698,-3.1695,-3.172,-3.173,-3.1737,-3.1778,-3.1848,-3.1884,-3.1914,-3.1933,-3.1991,-3.2057,-3.2007,-3.2026,-3.1994,-3.2049,-3.219,-3.1988,-3.1987,-3.2027,-3.2339,-3.2382,-3.241,-3.2158,-3.2162,-3.2165,-3.2339,0,-3.1868,-3.1985,-3.1946,-3.2066,-3.2116,-3.2046,-3.2106,-3.2118,-3.2106,-3.2148,-3.2134,-3.2183,-3.2111,-3.2123,-3.2173,-3.2163,-3.2253,-3.2149,-3.2213,-3.2216,-3.2214,-3.2439,-3.2484,-3.2648,-3.236,-3.2364,-3.2367,0,-3.2082,-3.2109,-3.2234,-3.2232,-3.2252,-3.2307,-3.2338,-3.2378,-3.2389,-3.2377,-3.2398,-3.2355,-3.2424,-3.2338,-3.2433,-3.2363,-3.2387,-3.2386,-3.2391,-3.2397,-3.2302,-3.2453,-3.2699,-3.2724,-3.2401,-3.2398,-3.2396,0,-3.2253,-3.232,-3.2403,-3.2414,-3.2414,-3.2455,-3.2457,-3.2463,-3.2488,-3.2515,-3.2531,-3.2566,-3.2586,-3.2615,-3.2583,-3.2523,-3.2684,-3.2595,-3.2677,-3.2679,-3.2716,-3.2715,-3.2971,-3.2728,-3.2728,-3.2727,-3.2727,0,-3.2448,-3.2527,-3.248,-3.2532,-3.2619,-3.2574,-3.2662,-3.2656,-3.2663,-3.2713,-3.2653,-3.2702,-3.2656,-3.2701,-3.2676,-3.276,-3.2769,-3.2762,-3.2755,-3.2769,-3.277,-3.2785,-3.2774,-3.2734,-3.2732,-3.2731,-3.273,0,-3.2654,-3.2625,-3.2712,-3.2704,-3.2704,-3.277,-3.2763,-3.2812,-3.2795,-3.2859,-3.2872,-3.2846,-3.2896,-3.2866,-3.2917,-3.29,-3.301,-3.2986,-3.3006,-3.3001,-3.3086,-3.3079,-3.3363,-3.3398,-3.3131,-3.3133,-3.3135,0,-3.2781,-3.2841,-3.284,-3.2868,-3.2874,-3.2921,-3.2946,-3.2904,-3.2932,-3.295,-3.2996,-3.304,-3.3073,-3.3156,-3.3143,-3.3181,-3.316,-3.3256,-3.3165,-3.3177,-3.3163,-3.3161,-3.3168,-3.3276,-3.3279,-3.3281,-3.3283,0,-3.3011,-3.2994,-3.3031,-3.3065,-3.3095,-3.312,-3.3139,-3.3166,-3.3123,-3.3158,-3.3208,-3.3234,-3.3285,-3.333,-3.3363,-3.3365,-3.3319,-3.3312,-3.3333,-3.3349,-3.3359,-3.3357,-3.3058,-3.3306,-3.3304,-3.3302,-3.3301,-3.33,-3.3183,-3.3233,-3.324,-3.3284,-3.3294,-3.3313,-3.3358,-3.3347,-3.3387,-3.3425,-3.3397,-3.3456,-3.3467,-3.3505,-3.3515,-3.3561,-3.3522,-3.3553,-3.3561,-3.357,-3.3582,-3.335,-3.3566,-3.3566,-3.3565,-3.3564,-3.3564,0,-3.3412,-3.3413,-3.3453,-3.3482,-3.3517,-3.3467,-3.3486,-3.3519,-3.3571,-3.3584,-3.3618,-3.3675,-3.3718,-3.3708,-3.3747,-3.3787,-3.3766,-3.3799,-3.3797,-3.3798,-3.3614,-3.3592,-3.3815,-3.3815,-3.3815,-3.3815,-3.3815,-3.3814,-3.3535,-3.3617,-3.3601,-3.3688,-3.3688,-3.3745,-3.376,-3.3778,-3.3788,-3.3855,-3.389,-3.3882,-3.3887,-3.3926,-3.3964,-3.3959,-3.3978,-3.4019,-3.4007,-3.3836,-3.3811,-3.3788,-3.3767,-3.4023,-3.4023,-3.4188,-3.4189,-3.4191]},{"header":{"parameterUnit":"m.s-1","parameterCategory":1,"la1":30.2991,"la2":30.254,"lo1":-89.0895,"lo2":-89.0444,"dy":0.0017,"dx":0.0017,"nx":28,"ny":28,"refTime":"2024-02-14T09:00:00:Z","depth":0,"parameterNumber":3,"parameterNumberName":"V-component_of_WINDS"},"data":[0,0,0,0,0,0,0,0,0,0,0,0,0,0,0,0,0,0,0,0,0,0,0,0,0,0,0,0,0,0,0,0,0,0,0,0,0,0,0,0,0,0,0,0,0,0,0,0,0,0,0,0,0,0,0,0,0,0,-1.6972,-1.6972,0,-1.7003,-1.7003,-1.7004,-1.6985,-1.6984,-1.6983,-1.6983,-1.7013,-1.7014,-1.7016,0,0,0,0,0,0,0,0,0,0,0,0,0,-1.6894,-1.6895,-1.6972,-1.6972,-1.6973,-1.7003,-1.7003,-1.7004,-1.6985,-1.6984,-1.6983,-1.6982,-1.7012,-1.7014,-1.7016,0,0,0,0,0,0,0,0,0,0,0,0,0,-1.6927,-1.6896,-1.6972,-1.6967,-1.6967,-1.7003,-1.7004,-1.7004,-1.6986,-1.6984,-1.6983,-1.6982,-1.7011,-1.7014,-1.7016,-1.7058,0,0,-1.7024,-1.7025,0,0,0,0,0,0,0,0,-1.6925,-1.693,-1.6968,-1.6968,-1.6968,-1.6989,-1.6987,-1.7022,-1.6986,-1.6979,-1.6983,-1.6981,-1.7006,-1.7009,-1.7017,-1.7059,-1.7061,-1.7024,-1.7025,-1.7026,-1.7027,0,0,0,0,0,0,0,-1.6923,-1.6928,-1.6984,-1.6968,-1.6968,-1.6963,-1.6966,-1.6994,-1.6999,-1.6979,-1.6978,-1.6982,-1.7005,-1.7015,-1.7018,-1.7061,-1.7024,-1.7026,-1.7028,-1.7028,-1.7138,-1.7139,0,0,0,0,0,0,-1.6921,-1.6926,-1.6983,-1.6985,-1.6943,-1.6965,-1.6969,-1.6983,-1.6999,-1.7,-1.6983,-1.6981,-1.7011,-1.7015,-1.7019,-1.7068,-1.7026,-1.7029,-1.703,-1.7136,-1.7138,-1.714,0,0,0,0,0,0,-1.6919,-1.6926,-1.6982,-1.6955,-1.6962,-1.6968,-1.6985,-1.6985,-1.6994,-1.7002,-1.7002,-1.6992,-1.7011,-1.7015,-1.7048,-1.7069,-1.703,-1.7032,-1.7135,-1.7137,-1.7139,-1.7167,0,0,0,0,0,0,-1.6917,-1.6926,-1.6942,-1.6956,-1.6964,-1.7012,-1.6986,-1.6986,-1.6999,-1.6996,-1.701,-1.7011,-1.701,-1.7045,-1.7051,-1.7072,-1.7034,-1.7133,-1.7136,-1.7138,-1.7165,-1.717,-1.7175,0,0,0,0,0,-1.6914,-1.6949,-1.6943,-1.695,-1.6985,-1.7013,-1.7017,-1.7016,-1.7,-1.7017,-1.7021,-1.7011,-1.7066,-1.7048,-1.7055,-1.7077,-1.7132,-1.7135,-1.7138,-1.7162,-1.7169,-1.7175,0,0,0,0,0,0,-1.6937,-1.6951,-1.6945,-1.6985,-1.6998,-1.701,-1.703,-1.7023,-1.704,-1.7037,-1.7034,-1.7037,-1.7071,-1.7077,-1.7058,-1.7117,-1.7096,-1.7101,-1.7112,-1.7119,-1.7124,-1.7122,-1.7036,0,0,0,0,0,-1.6947,-1.697,-1.698,-1.7014,-1.7021,-1.7025,-1.7037,-1.7035,-1.7048,-1.7053,-1.706,-1.7073,-1.7093,-1.7106,-1.7125,-1.7165,-1.7168,-1.7183,-1.7189,-1.7193,-1.7197,-1.7218,-1.7225,-1.715,-1.715,-1.715,0,0,-1.6967,-1.6977,-1.6992,-1.7019,-1.7029,-1.7052,-1.703,-1.7055,-1.7071,-1.7057,-1.7088,-1.7094,-1.7108,-1.7144,-1.7161,-1.715,-1.7218,-1.7197,-1.72,-1.7202,-1.7222,-1.7229,-1.7235,-1.7153,-1.7152,-1.7152,0,0,-1.7016,-1.7026,-1.7056,-1.7066,-1.7081,-1.7083,-1.709,-1.7103,-1.7107,-1.7138,-1.7128,-1.7147,-1.7181,-1.7192,-1.7201,-1.7253,-1.7243,-1.7259,-1.7286,-1.7306,-1.7312,-1.7317,-1.7335,-1.7342,-1.7263,-1.7263,-1.7263,0,-1.7039,-1.7074,-1.7071,-1.7097,-1.7109,-1.7097,-1.7126,-1.7136,-1.7157,-1.7165,-1.7153,-1.7196,-1.7204,-1.7243,-1.7255,-1.7264,-1.7271,-1.7257,-1.7312,-1.7317,-1.7322,-1.7338,-1.7345,-1.7265,-1.7264,-1.7264,-1.7264,0,-1.7101,-1.7125,-1.7147,-1.7167,-1.7182,-1.7209,-1.721,-1.7224,-1.722,-1.7223,-1.7255,-1.7265,-1.7285,-1.7294,-1.729,-1.7331,-1.7324,-1.7312,-1.7291,-1.733,-1.7346,-1.7353,-1.7267,-1.7266,-1.7266,-1.7265,0,0,-1.7165,-1.7184,-1.7192,-1.7201,-1.7217,-1.7235,-1.7261,-1.7281,-1.7293,-1.7307,-1.7329,-1.7358,-1.7347,-1.7358,-1.7355,-1.7373,-1.7412,-1.7358,-1.7358,-1.7367,-1.7457,-1.7466,-1.7474,-1.7406,-1.7407,-1.7408,-1.7456,0,-1.7215,-1.7262,-1.726,-1.7303,-1.7325,-1.7313,-1.7336,-1.7347,-1.7351,-1.7369,-1.7372,-1.7392,-1.7376,-1.7382,-1.74,-1.7404,-1.743,-1.74,-1.7425,-1.7426,-1.7422,-1.7482,-1.7492,-1.7537,-1.7462,-1.7463,-1.7464,0,-1.7279,-1.7295,-1.7341,-1.7353,-1.7362,-1.7382,-1.74,-1.7418,-1.743,-1.7431,-1.7443,-1.7437,-1.7463,-1.7441,-1.7475,-1.7455,-1.7465,-1.7468,-1.747,-1.7472,-1.7447,-1.7486,-1.7551,-1.7558,-1.7474,-1.7473,-1.7472,0,-1.7321,-1.7354,-1.7386,-1.7394,-1.7408,-1.7423,-1.743,-1.7441,-1.7453,-1.7468,-1.7476,-1.7494,-1.7503,-1.7517,-1.7515,-1.7499,-1.755,-1.7528,-1.7551,-1.7551,-1.7562,-1.7562,-1.763,-1.7569,-1.7569,-1.7569,-1.7569,0,-1.7376,-1.7404,-1.7405,-1.7424,-1.7455,-1.7452,-1.7483,-1.7487,-1.7497,-1.7517,-1.7507,-1.7526,-1.7523,-1.7541,-1.7539,-1.7568,-1.7572,-1.7573,-1.7573,-1.7574,-1.7574,-1.758,-1.7577,-1.7571,-1.757,-1.757,-1.757,0,-1.7428,-1.743,-1.7463,-1.7474,-1.7478,-1.75,-1.7509,-1.7526,-1.7528,-1.7553,-1.7559,-1.7562,-1.7582,-1.7582,-1.7605,-1.7604,-1.7639,-1.7635,-1.7635,-1.7634,-1.7657,-1.7655,-1.7732,-1.7742,-1.7675,-1.7675,-1.7676,0,-1.7463,-1.7484,-1.7498,-1.751,-1.7518,-1.7538,-1.755,-1.7548,-1.7561,-1.7576,-1.7592,-1.7612,-1.7627,-1.766,-1.7664,-1.7682,-1.7678,-1.7703,-1.768,-1.7681,-1.7678,-1.7676,-1.7678,-1.7708,-1.7709,-1.7709,-1.771,0,-1.7525,-1.7525,-1.7543,-1.7561,-1.7576,-1.759,-1.7603,-1.7614,-1.7613,-1.7628,-1.7649,-1.7661,-1.7685,-1.7704,-1.7721,-1.7726,-1.7718,-1.7717,-1.7723,-1.7725,-1.7724,-1.7724,-1.7647,-1.7715,-1.7715,-1.7714,-1.7714,-1.7714,-1.7569,-1.7588,-1.76,-1.762,-1.763,-1.7642,-1.7659,-1.7663,-1.7681,-1.77,-1.7697,-1.7721,-1.7731,-1.7753,-1.776,-1.7778,-1.7769,-1.7778,-1.778,-1.7782,-1.7785,-1.7721,-1.7781,-1.7781,-1.7781,-1.778,-1.778,0,-1.763,-1.7637,-1.7656,-1.7675,-1.7691,-1.7681,-1.7695,-1.7709,-1.773,-1.7741,-1.7756,-1.778,-1.7798,-1.7803,-1.7821,-1.7834,-1.7831,-1.7839,-1.7838,-1.7839,-1.7792,-1.7785,-1.7841,-1.7841,-1.7841,-1.7841,-1.7841,-1.7841,-1.7664,-1.7694,-1.7695,-1.7729,-1.7736,-1.7759,-1.7768,-1.7779,-1.7787,-1.7815,-1.783,-1.7833,-1.7842,-1.786,-1.7876,-1.7877,-1.7883,-1.7893,-1.7893,-1.7849,-1.7842,-1.7837,-1.783,-1.7895,-1.7895,-1.7938,-1.7938,-1.7939]}]]